Location: Newark
(34.7000°S, 31.1997°W)
Time: 00:45:19
(UTC+00:00)

LightSail 2 - Visible Passes

Search period start: 29 March 2020 00:00
Search period end: 08 April 2020 00:00
Orbit: 692 x 726 km, 24.0° (Epoch: 28 March)

Date Brightness Start Highest point End Pass type
(mag) Time Alt. Az. Time Alt. Az. Time Alt. Az.
29 Mar 7.1 21:26:11 10° NNW 21:28:41 14° NNE 21:29:06 13° NNE visible
30 Mar 7.4 20:28:43 10° N 20:29:41 10° NNE 20:30:40 10° NNE visible
30 Mar 7.2 22:10:38 10° NW 22:12:34 17° NNW 22:12:34 17° NNW visible
31 Mar 6.9 21:11:54 10° NNW 21:15:24 18° NNE 21:17:03 16° NE visible
01 Apr 6.7 21:57:03 10° NW 22:00:24 23° N 22:00:24 23° N visible
02 Apr 6.8 20:58:06 10° NW 21:02:04 22° N 21:04:49 15° NE visible
02 Apr 7.6 22:42:47 10° WNW 22:43:42 14° NW 22:43:42 14° NW visible
03 Apr 6.5 21:43:36 10° NW 21:47:50 25° N 21:48:05 25° N visible
04 Apr 6.7 20:44:30 10° NW 20:48:43 24° N 20:52:27 12° NE visible
04 Apr 7.4 22:29:37 10° WNW 22:31:20 17° NW 22:31:20 17° NW visible
05 Apr 6.6 21:30:18 10° WNW 21:34:28 24° N 21:35:41 22° NNE visible
06 Apr 6.8 20:31:03 10° NW 20:35:18 25° N 20:39:33 10° NE visible
06 Apr 7.3 22:16:37 10° NW 22:18:55 17° NNW 22:18:55 17° NNW visible
07 Apr 7.0 21:17:06 10° WNW 21:21:01 21° N 21:23:18 16° NNE visible
